Regional Weather Roundup
Issued by NWS

Home | Current Version | Previous Version | Text Only | Print | Product List | Glossary Off
Versions: 1 2 3 4 5 6 7 8 9 10 11 12 13 14 15 16 17 18 19 20 21 22 23 24 25 26 27 28 29 30 31 32 33 34 35 36 37 38 39 40 41 42 43 44 45 46 47 48 49 50

000
ASUS43 KIND 251359
RWRIN

WEATHER ROUNDUP FOR INDIANA
NATIONAL WEATHER SERVICE INDIANAPOLIS IN
1000 AM EDT THU AUG 25 2016

NOTE: "FAIR" INDICATES FEW OR NO CLOUDS BELOW 12,000 FEET WITH NO
SIGNIFICANT WEATHER AND/OR OBSTRUCTIONS TO VISIBILITY.

* - STATION DOES NOT REPORT WEATHER SUCH AS PRECIPITATION OR FOG.

+ - STATION NOT QUALITY CONTROLLED BY THE NATIONAL WEATHER SERVICE.
    USE DATA WITH CAUTION...ESPECIALLY DEWPOINT AND RELATIVE
    HUMIDITY OBSERVATIONS.

INZ001>003-010>013-019-020-251500-
NORTHWEST INDIANA

CITY           SKY/WX    TMP DP  RH WIND       PRES   REMARKS
GARY /AIRPORT/ CLOUDY    75  72  88 SW10      30.00S
KNOX *+        MOSUNNY   72  55  56 SW8       30.00F
MONTICELLO +   SUNNY     74  67  80 SW10      30.04S
RENSSELAER +   SUNNY     73  72  94 SW8       30.04S
VALPARAISO     MOSUNNY   74  70  87 SW9       30.02S

$$

LMZ046-743>745-251500-
SOUTHERN LAKE MICHIGAN

STATION/POSITION TIME  TEMP    WIND        PRES    WAVE
                       AIR SEA DIR/SP/G            HT
                 (UTC) (F)     (DEG/KT/KT) (MB)    (FT)
BURNS HARBOR     1314   73     210/ 10/ 16 1015.9F
MICHIGAN CITY    1300   71     190/  6/  7   N/A
5NW MICH CITY    1300   72 73  220/ 10/ 12   N/A     1

$$

INZ004-005-014>016-021>024-251500-
NORTH CENTRAL INDIANA

CITY           SKY/WX    TMP DP  RH WIND       PRES   REMARKS
ELKHART        CLOUDY    73  70  88 SW12      30.00F
GOSHEN         PTSUNNY   76  69  79 SW10      30.01S
SOUTH BEND     PTSUNNY   73  70  90 SW12      30.00F

$$

INZ006>009-017-018-025>027-251500-
NORTHEAST INDIANA

CITY           SKY/WX    TMP DP  RH WIND       PRES   REMARKS
ANGOLA *+      SUNNY     77  72  83 W5        30.01S
FORT WAYNE     PTSUNNY   76  70  82 SW8       30.02S

$$

INZ028-029-035-036-043>045-051>053-251500-
WEST CENTRAL INDIANA

CITY           SKY/WX    TMP DP  RH WIND       PRES   REMARKS
CRAWFORDSVL +  SUNNY     76  73  88 SW5       30.06R
GREENCASTLE +  MOSUNNY   77  77 100 SW6       30.07S
LAFAYETTE      SUNNY     74  71  91 W7        30.05R
TERRE HAUTE    SUNNY     81  74  79 SW8       30.06S

$$

INZ030>032-037>040-046>048-054>057-064-065-251500-
CENTRAL INDIANA

CITY           SKY/WX    TMP DP  RH WIND       PRES   REMARKS
COLUMBUS       CLOUDY    77  77 100 SW9       30.08S
INDIANAPOLIS   MOSUNNY   81  72  74 SW10      30.05F
-EAGLE CREEK   SUNNY     80  72  76 S8        30.05S
MT COMFORT *+  MOSUNNY   79  73  83 SW7       30.06S
SHELBYVILLE    MOSUNNY   81  74  79 SW10      30.06F

$$

INZ033-034-041-042-049-050-058-059-251500-
EAST CENTRAL INDIANA

CITY           SKY/WX    TMP DP  RH WIND       PRES   REMARKS
MUNCIE         SUNNY     80  74  81 VRB7      30.04S

$$

INZ060-061-067>069-081>083-085>088-251500-
SOUTHWEST INDIANA

CITY           SKY/WX    TMP DP  RH WIND       PRES   REMARKS
EVANSVILLE     SUNNY     82  74  76 SW8       30.11S
HUNTINGBURG *+ SUNNY     81  73  78 SW9       30.11S

$$

INZ062-063-066-070>080-084-089>092-251500-
SOUTH CENTRAL AND SOUTHEAST INDIANA

CITY           SKY/WX    TMP DP  RH WIND       PRES   REMARKS
BLOOMINGTON    PTSUNNY   79  74  84 SW10      30.09S
MADISON *+     CLOUDY    79  73  83 SW5       30.12S

$$





USA.gov is the U.S. government's official web portal to all federal, state and local government web resources and services.